Regional Weather Roundup
Issued by NWS

Home | Current Version | Previous Version | Graphics & Text | Print | Product List | Glossary On
Versions: 1 2 3 4 5 6 7 8 9 10 11 12 13 14 15 16 17 18 19 20 21 22 23 24 25 26 27 28 29 30 31 32 33 34 35 36 37 38 39 40 41 42 43 44 45 46 47 48 49 50
000
ASUS43 KLMK 281102
RWRKY
KENTUCKY REGIONAL WEATHER ROUNDUP
NATIONAL WEATHER SERVICE LOUISVILLE KY
700 AM EDT SUN MAY 28 2017

NOTE "FAIR" INDICATES FEW OR NO CLOUDS BELOW 12,000 FEET
WITH NO SIGNIFICANT WEATHER AND/OR OBSTRUCTIONS TO VISIBILITY.

KYZ001>023-026-027-061>063-070>075-281200-
WESTERN AND SOUTH CENTRAL KENTUCKY

CITY           SKY/WX    TMP DP  RH WIND       PRES   REMARKS
PADUCAH        MOCLDY    64  61  90 SW6       29.83R
HENDERSON      MOCLDY    65  61  87 S10       29.78S
OWENSBORO      CLOUDY    64  62  93 S9        29.80S
HOPKINSVILLE   CLOUDY    64  63  99 W8        29.86R
BOWLING GREEN  CLOUDY    65  63  93 NW3       29.83R
GLASGOW        NOT AVBL
$$

KYZ024-025-028>034-038-045-046-053-281200-
NORTH CENTRAL KENTUCKY

CITY           SKY/WX    TMP DP  RH WIND       PRES   REMARKS
LOUISVILLE/SDF CLOUDY    65  62  90 S6        29.79R
LOUISVILLE/LOU CLOUDY    64  63  96 S7        29.80R
FORT KNOX      CLOUDY    62  62  99 S8        29.78F
$$

KYZ035>037-039>044-047>052-055>060-089>105-281200-
NORTHEAST KENTUCKY

CITY           SKY/WX    TMP DP  RH WIND       PRES   REMARKS
LEXINGTON      MOCLDY    61  58  90 SE3       29.83R
COVINGTON      MOCLDY    62  61  96 S10       29.78S
FRANKFORT      PTCLDY    63  60  90 S8        29.79S
$$

KYZ054-064>069-076>088-106>120-281200-
SOUTHEAST KENTUCKY

CITY           SKY/WX    TMP DP  RH WIND       PRES   REMARKS
JACKSON        CLOUDY    62  61  96 CALM      29.87R
LONDON         CLOUDY    61  59  93 CALM      29.85S
SOMERSET       CLOUDY    59  59 100 CALM      29.87R
MIDDLESBORO    CLOUDY    61  61 100 CALM      29.88R
MONTICELLO     PTSUNNY   62  61  96 NE9       29.87R
$$





USA.gov is the U.S. government's official web portal to all federal, state and local government web resources and services.